Time,TemperatureF,DewpointF,PressureIn,WindDirection,WindDirectionDegrees,WindSpeedMPH,WindSpeedGustMPH,Humidity,HourlyPrecipIn,Conditions,Clouds,dailyrainin,SoftwareType,DateUTC
2013-05-15 00:02:00,72.0,50.0,29.78,East,100,3.0,-999.0,46,-99.99,,,-99.99,,2013-05-15 05:02:00,
2013-05-15 00:12:00,72.0,52.0,29.78,SE,140,3.0,-999.0,49,-99.99,,,-99.99,,2013-05-15 05:12:00,
2013-05-15 00:22:00,70.0,52.0,29.78,SSE,150,7.0,-999.0,52,-99.99,,,-99.99,,2013-05-15 05:22:00,
2013-05-15 00:32:00,72.0,52.0,29.78,SE,140,6.0,-999.0,49,-99.99,,,-99.99,,2013-05-15 05:32:00,
2013-05-15 00:42:00,70.0,52.0,29.78,SE,140,6.0,-999.0,52,-99.99,,,-99.99,,2013-05-15 05:42:00,
2013-05-15 00:52:00,70.0,54.0,29.79,SSE,150,6.0,-999.0,56,-99.99,,,-99.99,,2013-05-15 05:52:00,
2013-05-15 01:02:00,70.0,54.0,29.79,SSE,150,6.0,-999.0,56,-99.99,,,-99.99,,2013-05-15 06:02:00,
2013-05-15 01:11:00,70.0,54.0,29.79,SSE,160,6.0,-999.0,56,-99.99,,,-99.99,,2013-05-15 06:11:00,
2013-05-15 01:21:00,70.0,54.0,29.79,South,180,3.0,-999.0,56,-99.99,,,-99.99,,2013-05-15 06:21:00,
2013-05-15 01:32:00,70.0,54.0,29.79,South,180,5.0,-999.0,56,-99.99,,,-99.99,,2013-05-15 06:32:00,
2013-05-15 01:41:00,70.0,54.0,29.80,South,180,3.0,-999.0,56,-99.99,,,-99.99,,2013-05-15 06:41:00,
2013-05-15 01:51:00,70.0,54.0,29.79,South,180,3.0,-999.0,56,-99.99,,,-99.99,,2013-05-15 06:51:00,
2013-05-15 02:01:00,70.0,54.0,29.79,South,180,3.0,-999.0,56,-99.99,,,-99.99,,2013-05-15 07:01:00,
2013-05-15 02:11:00,68.0,54.0,29.79,South,170,5.0,-999.0,59,-99.99,,,-99.99,,2013-05-15 07:11:00,
2013-05-15 02:21:00,68.0,54.0,29.79,South,180,3.0,-999.0,59,-99.99,,,-99.99,,2013-05-15 07:21:00,
2013-05-15 02:32:00,68.0,54.0,29.79,North,0,0.0,-999.0,59,-99.99,,,-99.99,,2013-05-15 07:32:00,
2013-05-15 02:41:00,68.0,54.0,29.79,South,180,3.0,-999.0,59,-99.99,,,-99.99,,2013-05-15 07:41:00,
2013-05-15 02:52:00,68.0,54.0,29.79,South,170,3.0,-999.0,59,-99.99,,,-99.99,,2013-05-15 07:52:00,
2013-05-15 03:02:00,68.0,54.0,29.79,South,170,3.0,-999.0,59,-99.99,,,-99.99,,2013-05-15 08:02:00,
2013-05-15 03:12:00,70.0,54.0,29.79,North,0,0.0,-999.0,56,-99.99,,,-99.99,,2013-05-15 08:12:00,
2013-05-15 03:21:00,68.0,54.0,29.79,North,0,0.0,-999.0,59,-99.99,,,-99.99,,2013-05-15 08:21:00,
2013-05-15 03:32:00,66.0,54.0,29.80,North,0,0.0,-999.0,63,-99.99,,,-99.99,,2013-05-15 08:32:00,
2013-05-15 03:42:00,64.0,54.0,29.81,North,360,6.0,-999.0,67,-99.99,,,-99.99,,2013-05-15 08:42:00,
2013-05-15 03:52:00,64.0,54.0,29.80,North,0,0.0,-999.0,67,-99.99,,,-99.99,,2013-05-15 08:52:00,
2013-05-15 04:01:00,64.0,54.0,29.80,North,0,0.0,-999.0,67,-99.99,,,-99.99,,2013-05-15 09:01:00,
2013-05-15 04:11:00,63.0,55.0,29.80,North,0,0.0,-999.0,77,-99.99,,,-99.99,,2013-05-15 09:11:00,
2013-05-15 04:21:00,63.0,55.0,29.80,North,0,0.0,-999.0,77,-99.99,,,-99.99,,2013-05-15 09:21:00,
2013-05-15 04:33:00,61.0,55.0,29.80,North,0,0.0,-999.0,82,-99.99,,,-99.99,,2013-05-15 09:33:00,
2013-05-15 04:42:00,63.0,55.0,29.80,SE,140,3.0,-999.0,77,-99.99,,,-99.99,,2013-05-15 09:42:00,
2013-05-15 04:53:00,64.0,55.0,29.79,SE,130,5.0,-999.0,72,-99.99,,,-99.99,,2013-05-15 09:53:00,
2013-05-15 05:02:00,64.0,55.0,29.79,SE,130,5.0,-999.0,72,-99.99,,,-99.99,,2013-05-15 10:02:00,
2013-05-15 05:12:00,61.0,54.0,29.80,ENE,70,3.0,-999.0,77,-99.99,,,-99.99,,2013-05-15 10:12:00,
2013-05-15 05:22:00,61.0,54.0,29.79,ESE,120,3.0,-999.0,77,-99.99,,,-99.99,,2013-05-15 10:22:00,
2013-05-15 05:32:00,61.0,54.0,29.80,North,0,0.0,-999.0,77,-99.99,,,-99.99,,2013-05-15 10:32:00,
2013-05-15 05:42:00,59.0,54.0,29.80,NE,50,3.0,-999.0,82,-99.99,,,-99.99,,2013-05-15 10:42:00,
2013-05-15 05:52:00,59.0,54.0,29.80,North,0,0.0,-999.0,82,-99.99,,,-99.99,,2013-05-15 10:52:00,
2013-05-15 06:08:00,59.0,54.0,29.80,North,0,0.0,-999.0,82,-99.99,,,-99.99,,2013-05-15 11:08:00,
2013-05-15 06:17:00,61.0,54.0,29.80,ESE,120,5.0,-999.0,77,-99.99,,,-99.99,,2013-05-15 11:17:00,
2013-05-15 06:26:00,63.0,54.0,29.80,SE,140,6.0,-999.0,72,-99.99,,,-99.99,,2013-05-15 11:26:00,
2013-05-15 06:35:00,61.0,54.0,29.80,SE,130,5.0,-999.0,77,-99.99,,,-99.99,,2013-05-15 11:35:00,
2013-05-15 06:47:00,61.0,54.0,29.80,ESE,120,6.0,-999.0,77,-99.99,,,-99.99,,2013-05-15 11:47:00,
2013-05-15 06:55:00,61.0,54.0,29.81,SE,130,3.0,-999.0,77,-99.99,,,-99.99,,2013-05-15 11:55:00,
2013-05-15 07:13:00,63.0,55.0,29.82,SE,130,5.0,-999.0,77,-99.99,,,-99.99,,2013-05-15 12:13:00,
2013-05-15 07:26:00,64.0,55.0,29.82,SSE,150,7.0,-999.0,72,-99.99,,,-99.99,,2013-05-15 12:26:00,
2013-05-15 07:35:00,64.0,55.0,29.82,SE,140,6.0,-999.0,72,-99.99,,,-99.99,,2013-05-15 12:35:00,
2013-05-15 07:46:00,66.0,55.0,29.83,North,0,0.0,-999.0,68,-99.99,,,-99.99,,2013-05-15 12:46:00,
2013-05-15 07:54:00,66.0,55.0,29.83,North,0,0.0,-999.0,68,-99.99,,,-99.99,,2013-05-15 12:54:00,
2013-05-15 08:08:00,66.0,55.0,29.83,North,0,0.0,-999.0,68,-99.99,,,-99.99,,2013-05-15 13:08:00,
2013-05-15 08:15:00,68.0,57.0,29.83,SSE,150,6.0,-999.0,68,-99.99,,,-99.99,,2013-05-15 13:15:00,
2013-05-15 08:24:00,70.0,57.0,29.83,SSE,150,7.0,-999.0,64,-99.99,,,-99.99,,2013-05-15 13:24:00,
2013-05-15 08:35:00,70.0,57.0,29.84,SSE,160,7.0,-999.0,64,-99.99,,,-99.99,,2013-05-15 13:35:00,
2013-05-15 08:55:00,72.0,57.0,29.84,South,170,8.0,-999.0,60,-99.99,,,-99.99,,2013-05-15 13:55:00,
2013-05-15 09:05:00,72.0,57.0,29.84,South,170,8.0,-999.0,60,-99.99,,,-99.99,,2013-05-15 14:05:00,
2013-05-15 09:12:00,72.0,57.0,29.84,SSE,150,9.0,-999.0,60,-99.99,,,-99.99,,2013-05-15 14:12:00,
2013-05-15 09:25:00,72.0,57.0,29.83,SSE,150,10.0,-999.0,60,-99.99,,,-99.99,,2013-05-15 14:25:00,
2013-05-15 09:36:00,72.0,55.0,29.83,SSE,150,8.0,-999.0,56,-99.99,,,-99.99,,2013-05-15 14:36:00,
2013-05-15 09:44:00,73.0,57.0,29.82,SSE,160,8.0,-999.0,56,-99.99,,,-99.99,,2013-05-15 14:44:00,
2013-05-15 09:52:00,73.0,55.0,29.82,South,180,13.0,-999.0,53,-99.99,,,-99.99,,2013-05-15 14:52:00,
2013-05-15 10:08:00,73.0,55.0,29.82,South,180,13.0,-999.0,53,-99.99,,,-99.99,,2013-05-15 15:08:00,
2013-05-15 10:27:00,75.0,55.0,29.82,South,190,10.0,-999.0,50,-99.99,,,-99.99,,2013-05-15 15:27:00,
2013-05-15 10:36:00,75.0,55.0,29.82,South,170,7.0,-999.0,50,-99.99,,,-99.99,,2013-05-15 15:36:00,
2013-05-15 10:56:00,77.0,55.0,29.82,South,180,6.0,-999.0,47,-99.99,,,-99.99,,2013-05-15 15:56:00,
2013-05-15 11:08:00,77.0,55.0,29.82,South,180,6.0,-999.0,47,-99.99,,,-99.99,,2013-05-15 16:08:00,
2013-05-15 11:19:00,79.0,55.0,29.84,North,0,0.0,-999.0,44,-99.99,,,-99.99,,2013-05-15 16:19:00,
2013-05-15 11:27:00,79.0,55.0,29.82,SSE,150,6.0,-999.0,44,-99.99,,,-99.99,,2013-05-15 16:27:00,
2013-05-15 11:35:00,79.0,55.0,29.83,North,0,0.0,-999.0,44,-99.99,,,-99.99,,2013-05-15 16:35:00,
2013-05-15 11:46:00,79.0,55.0,29.83,SSW,200,3.0,-999.0,44,-99.99,,,-99.99,,2013-05-15 16:46:00,
2013-05-15 11:53:00,79.0,55.0,29.82,East,90,6.0,-999.0,44,-99.99,,,-99.99,,2013-05-15 16:53:00,
2013-05-15 12:08:00,79.0,55.0,29.82,East,90,6.0,-999.0,44,-99.99,,,-99.99,,2013-05-15 17:08:00,
2013-05-15 12:16:00,81.0,55.0,29.82,East,80,5.0,-999.0,41,-99.99,,,-99.99,,2013-05-15 17:16:00,
2013-05-15 12:26:00,81.0,55.0,29.82,East,100,6.0,-999.0,41,-99.99,,,-99.99,,2013-05-15 17:26:00,
2013-05-15 12:45:00,81.0,55.0,29.82,ENE,70,5.0,-999.0,41,-99.99,,,-99.99,,2013-05-15 17:45:00,
2013-05-15 12:55:00,81.0,54.0,29.82,NNE,30,3.0,-999.0,39,-99.99,,,-99.99,,2013-05-15 17:55:00,
2013-05-15 13:04:00,81.0,54.0,29.82,NNE,30,3.0,-999.0,39,-99.99,,,-99.99,,2013-05-15 18:04:00,
2013-05-15 13:13:00,81.0,55.0,29.82,NNE,20,5.0,-999.0,41,-99.99,,,-99.99,,2013-05-15 18:13:00,
2013-05-15 13:26:00,81.0,55.0,29.82,NE,50,7.0,-999.0,41,-99.99,,,-99.99,,2013-05-15 18:26:00,
2013-05-15 13:35:00,81.0,55.0,29.82,ENE,70,3.0,-999.0,41,-99.99,,,-99.99,,2013-05-15 18:35:00,
2013-05-15 13:46:00,81.0,55.0,29.82,North,0,0.0,-999.0,41,-99.99,,,-99.99,,2013-05-15 18:46:00,
2013-05-15 13:54:00,82.0,57.0,29.82,NNE,30,6.0,-999.0,42,-99.99,,,-99.99,,2013-05-15 18:54:00,
2013-05-15 14:07:00,82.0,57.0,29.82,NNE,30,6.0,-999.0,42,-99.99,,,-99.99,,2013-05-15 19:07:00,
2013-05-15 14:14:00,82.0,57.0,29.81,North,10,9.0,-999.0,42,-99.99,,,-99.99,,2013-05-15 19:14:00,
2013-05-15 14:27:00,82.0,57.0,29.81,NNE,20,9.0,-999.0,42,-99.99,,,-99.99,,2013-05-15 19:27:00,
2013-05-15 14:36:00,82.0,57.0,29.80,NNE,20,10.0,-999.0,42,-99.99,,,-99.99,,2013-05-15 19:36:00,
2013-05-15 14:44:00,82.0,57.0,29.80,NE,40,12.0,-999.0,42,-99.99,,,-99.99,,2013-05-15 19:44:00,
2013-05-15 14:54:00,84.0,57.0,29.80,NE,40,10.0,-999.0,39,-99.99,,,-99.99,,2013-05-15 19:54:00,
2013-05-15 15:06:00,84.0,57.0,29.80,NE,40,10.0,-999.0,39,-99.99,,,-99.99,,2013-05-15 20:06:00,
2013-05-15 15:15:00,84.0,59.0,29.79,NE,50,10.0,-999.0,42,-99.99,,,-99.99,,2013-05-15 20:15:00,
2013-05-15 15:26:00,88.0,55.0,29.79,SE,140,9.0,17.0,33,-99.99,,,-99.99,,2013-05-15 20:26:00,
2013-05-15 15:36:00,88.0,55.0,29.78,East,100,9.0,-999.0,33,-99.99,,,-99.99,,2013-05-15 20:36:00,
2013-05-15 15:45:00,88.0,55.0,29.78,SE,140,10.0,-999.0,33,-99.99,,,-99.99,,2013-05-15 20:45:00,
2013-05-15 15:52:00,86.0,55.0,29.78,ESE,120,7.0,-999.0,35,-99.99,,,-99.99,,2013-05-15 20:52:00,
2013-05-15 16:07:00,86.0,55.0,29.78,ESE,120,7.0,-999.0,35,-99.99,,,-99.99,,2013-05-15 21:07:00,
2013-05-15 16:18:00,88.0,57.0,29.78,SE,130,13.0,17.0,35,-99.99,,,-99.99,,2013-05-15 21:18:00,
2013-05-15 16:26:00,86.0,59.0,29.77,SE,140,8.0,-999.0,40,-99.99,,,-99.99,,2013-05-15 21:26:00,
2013-05-15 16:47:00,86.0,59.0,29.77,SE,140,13.0,-999.0,40,-99.99,,,-99.99,,2013-05-15 21:47:00,
2013-05-15 16:56:00,88.0,59.0,29.76,SE,130,12.0,20.0,37,-99.99,,,-99.99,,2013-05-15 21:56:00,
2013-05-15 17:08:00,88.0,59.0,29.76,SE,130,12.0,20.0,37,-99.99,,,-99.99,,2013-05-15 22:08:00,
2013-05-15 17:16:00,88.0,61.0,29.76,SSE,150,13.0,21.0,40,-99.99,,,-99.99,,2013-05-15 22:16:00,
2013-05-15 17:27:00,88.0,59.0,29.76,SE,130,10.0,-999.0,37,-99.99,,,-99.99,,2013-05-15 22:27:00,
2013-05-15 17:38:00,88.0,57.0,29.75,SSE,160,14.0,21.0,35,-99.99,,,-99.99,,2013-05-15 22:38:00,
2013-05-15 17:47:00,88.0,57.0,29.76,SSE,160,13.0,21.0,35,-99.99,,,-99.99,,2013-05-15 22:47:00,
2013-05-15 17:54:00,88.0,55.0,29.76,South,180,12.0,18.0,33,-99.99,,,-99.99,,2013-05-15 22:54:00,
2013-05-15 18:07:00,88.0,55.0,29.76,South,180,12.0,18.0,33,-99.99,,,-99.99,,2013-05-15 23:07:00,
2013-05-15 18:14:00,88.0,55.0,29.76,SSE,150,10.0,16.0,33,-99.99,,,-99.99,,2013-05-15 23:14:00,
2013-05-15 18:27:00,88.0,54.0,29.76,South,170,10.0,-999.0,31,-99.99,,,-99.99,,2013-05-15 23:27:00,
2013-05-15 18:38:00,86.0,55.0,29.76,SSE,160,10.0,-999.0,35,-99.99,,,-99.99,,2013-05-15 23:38:00,
2013-05-15 18:46:00,86.0,54.0,29.76,SE,140,10.0,-999.0,33,-99.99,,,-99.99,,2013-05-15 23:46:00,
2013-05-15 18:54:00,86.0,55.0,29.76,SSE,160,9.0,-999.0,35,-99.99,,,-99.99,,2013-05-15 23:54:00,
2013-05-15 19:05:00,86.0,55.0,29.76,SSE,160,9.0,-999.0,35,-99.99,,,-99.99,,2013-05-16 00:05:00,
2013-05-15 19:16:00,84.0,57.0,29.76,SSE,160,13.0,-999.0,39,-99.99,,,-99.99,,2013-05-16 00:16:00,
2013-05-15 19:25:00,84.0,57.0,29.76,SSE,160,14.0,18.0,39,-99.99,,,-99.99,,2013-05-16 00:25:00,
2013-05-15 19:35:00,82.0,57.0,29.76,SSE,160,12.0,-999.0,42,-99.99,,,-99.99,,2013-05-16 00:35:00,
2013-05-15 19:46:00,82.0,57.0,29.76,South,170,10.0,-999.0,42,-99.99,,,-99.99,,2013-05-16 00:46:00,
2013-05-15 19:54:00,81.0,57.0,29.77,South,170,10.0,-999.0,44,-99.99,,,-99.99,,2013-05-16 00:54:00,
2013-05-15 20:06:00,81.0,57.0,29.77,South,170,10.0,-999.0,44,-99.99,,,-99.99,,2013-05-16 01:06:00,
2013-05-15 20:26:00,77.0,59.0,29.77,SSE,160,12.0,-999.0,53,-99.99,,,-99.99,,2013-05-16 01:26:00,
2013-05-15 20:35:00,77.0,61.0,29.77,SSE,150,12.0,16.0,57,-99.99,,,-99.99,,2013-05-16 01:35:00,
2013-05-15 20:47:00,75.0,61.0,29.77,SSE,150,9.0,-999.0,60,-99.99,,,-99.99,,2013-05-16 01:47:00,
2013-05-15 20:55:00,75.0,61.0,29.77,SSE,150,12.0,-999.0,60,-99.99,,,-99.99,,2013-05-16 01:55:00,
2013-05-15 21:07:00,75.0,61.0,29.77,SSE,150,12.0,-999.0,60,-99.99,,,-99.99,,2013-05-16 02:07:00,
2013-05-15 21:15:00,73.0,63.0,29.78,SSE,160,10.0,-999.0,68,-99.99,,,-99.99,,2013-05-16 02:15:00,
2013-05-15 21:26:00,72.0,63.0,29.78,SSE,160,12.0,-999.0,73,-99.99,,,-99.99,,2013-05-16 02:26:00,
2013-05-15 21:36:00,72.0,61.0,29.78,SSE,160,14.0,18.0,68,-99.99,,,-99.99,,2013-05-16 02:36:00,
2013-05-15 21:44:00,72.0,61.0,29.78,SSE,160,14.0,18.0,68,-99.99,,,-99.99,,2013-05-16 02:44:00,
2013-05-15 21:53:00,72.0,61.0,29.78,SSE,160,14.0,18.0,68,-99.99,,,-99.99,,2013-05-16 02:53:00,
2013-05-15 22:06:00,72.0,61.0,29.79,SSE,150,12.0,-999.0,68,-99.99,,,-99.99,,2013-05-16 03:06:00,
2013-05-15 22:14:00,70.0,61.0,29.80,SSE,160,10.0,-999.0,73,-99.99,,,-99.99,,2013-05-16 03:14:00,
2013-05-15 22:24:00,70.0,61.0,29.81,SSE,150,8.0,-999.0,73,-99.99,,,-99.99,,2013-05-16 03:24:00,
2013-05-15 22:36:00,70.0,61.0,29.82,SE,140,6.0,-999.0,73,-99.99,,,-99.99,,2013-05-16 03:36:00,
2013-05-15 22:44:00,70.0,61.0,29.82,SE,140,7.0,-999.0,73,-99.99,,,-99.99,,2013-05-16 03:44:00,
2013-05-15 22:54:00,68.0,61.0,29.84,SE,130,8.0,-999.0,77,-99.99,,,-99.99,,2013-05-16 03:54:00,
2013-05-15 23:02:00,68.0,61.0,29.84,SE,130,8.0,-999.0,77,-99.99,,,-99.99,,2013-05-16 04:02:00,
2013-05-15 23:12:00,68.0,61.0,29.84,SE,130,8.0,-999.0,77,-99.99,,,-99.99,,2013-05-16 04:12:00,
2013-05-15 23:23:00,68.0,61.0,29.85,SE,140,10.0,-999.0,77,-99.99,,,-99.99,,2013-05-16 04:23:00,
2013-05-15 23:33:00,68.0,61.0,29.84,SE,140,9.0,-999.0,77,-99.99,,,-99.99,,2013-05-16 04:33:00,
2013-05-15 23:42:00,68.0,61.0,29.85,SE,140,9.0,-999.0,77,-99.99,,,-99.99,,2013-05-16 04:42:00,
2013-05-15 23:52:00,66.0,59.0,29.85,SE,140,8.0,-999.0,77,-99.99,,,-99.99,,2013-05-16 04:52:00,